IRIDIUM 33 DEB

Satellite information

Favourite Embed

Satellite Type and Status

DEBRISIN ORBIT

Key statistics

Satellite IRIDIUM 33 DEB at a glance.

Uptime

10318

Days in orbit

Revolutions

≈ 15.2

Per day

Orbit

LEO

Low Earth Orbit

Inclination

86.1

Latest

Satellite identification and parameters

Extended collection of information and parameters for IRIDIUM 33 DEB.

Object identification

Identified? True

Debris? True

Object name: IRIDIUM 33 DEB

International designator: 1997-051AAQ

Object number (NORAD): 39783

Object ID (CCSDS): 39783

Country: UNITED STATES OF AMERICA (US)

Current information (Y/N): Y

RCS size: SMALL

Orbital parameters

Period: 94.779 minutes

Inclination: 86.1306 deg

SMA: 6886.01 km

Apoapsis: 511.837 km

Periapsis: 503.913 km

RAAN: 268.8004 deg

Eccentricy: 0.00057535

Argument of periapsis: 179.9151 deg

Mean anomaly: 1.8316 deg

Mean motion: 15.19327111 rev/day

Mean motion (dot): 0.00226179 rev/day2

B* drag term: 0.010398125 1/REarth

Two-line elements (TLE)

Creation date: Nov. 16, 2025, 11:40 p.m.

Reference frame: TEME

Reference center: EARTH

Epoch: Nov. 16, 2025, 3:05 p.m. UTC

TLE line 0: 0 IRIDIUM 33 DEB

TLE line 1: 1 39783U 97051AAQ 25320.62894503 .00226179 00000-0 10398-1 0 9990

TLE line 2: 2 39783 86.1306 268.8004 0005753 179.9151 1.8316 15.19327111604018

Live tracking on map

Real-time ground track for satellite IRIDIUM 33 DEB.

In-orbit conjunctions

A list of the most updated potential collisions computed for object IRIDIUM 33 DEB.

Target Orbit TCA Probability of collision Miss distance Type
NOAA 17 DEB SSO 2024-09-24 18:00:22 0.0001966782 548.0 (m) DEBRIS

Associated space launch

Iridium provides global mobile telecommunications services using a constellation of 66 low earth orbit satellites in a 86.4° inclined orbit. Although 77 satellites were originally envisioned for the system and spawned the name based on the 77th element in the periodic table, the system has been scaled back. Motorola's Satellite Communications Group designed and manufactured the Iridium satellites with Lockheed Martin providing the LM-700A spacecraft buses.

IRIDIUM 33 DEB was lifted into orbit during the mission ‘Proton-K/17S40 | Iridium 27 to 33’, on board a Proton-K/17S40 space rocket.

The launch took place on Sept. 14, 1997, 1:36 a.m. from 81/23 (81L).

For more information about the launch, click the button.

Launch to space Proton-K/17S40 | Iridium 27 to 33
Proton-K/17S40 | Iridium 27 to 33

Agency: N/A

Status: Launch Successful

Launch date: Sept. 14, 1997, 1:36 a.m. UTC

Rocket: Proton-K/17S40

Launch pad: 81/23 (81L)

Location: Baikonur Cosmodrome, Republic of Kazakhstan

...

Latest news about this satellite

There are no fresh news available about this satellite. Check back as we update our databases every day.


Newsletter sign-up

Weekly statistics, charts and insights to help you stay on top of the space industry.